#timestamp,LO_Frequency,Hit 
1501873215.7,286046994.3,N
1501873235.5,286046993.3,P
1501873255.4,286046999.5,N
1501873275.2,286046996.6,N
1501873295.0,286046997.0,N
1501873295.9,286046997.0,N
1501873315.8,286047002.4,N
1501873335.6,286047000.1,N
1501873355.4,286047001.9,N
1501873375.3,286047001.9,N
1501873395.1,286046998.4,N
1501873396.0,286046998.4,N
1501873415.8,286047000.8,N
1501873435.7,286046998.1,N
1501873455.5,286047004.3,N
1501873475.3,286047003.6,N
1501873495.1,286047006.5,N
1501873515.9,286047006.9,N
1501873535.7,286047007.6,N
1501873555.5,286047006.7,N
1501873575.4,286047006.7,N
1501873595.2,286047006.0,N
1501873615.0,286047007.3,N
1501873615.9,286047007.3,N
1501873635.8,286047008.7,N
1501873655.6,286047008.3,N
1501873675.4,286047009.1,N
1501873695.3,286047008.0,N
1501873715.1,286047009.1,N
1501873716.0,286047009.1,N
1501873735.8,286047008.7,N
1501873755.7,286047007.0,N
1501873775.5,286047007.2,N
1501873795.3,286047002.9,N
1501873815.2,286047006.3,N
1501873835.9,286047009.2,N
1501873855.7,286047004.7,N
1501873875.5,286047002.2,N
1501873895.4,286047002.6,N
1501873915.2,286047001.8,N
1501873935.0,286047000.3,N
1501873935.9,286047000.3,N
1501873955.8,286047000.9,N
1501873975.6,286046999.8,N
1501873995.4,286047002.0,N
1501874015.3,286047000.5,N
1501874035.1,286047000.5,N
1501874036.0,286047000.5,N
1501874055.8,286046998.3,N
1501874075.7,286046999.1,N
1501874095.5,286046996.5,N
1501874115.3,286046997.5,N
1501874135.2,286046999.6,N
1501874155.9,286046997.6,N
1501874175.7,286046995.7,N
1501874195.6,286046993.7,N
1501874215.4,286046994.2,N
1501874235.2,286046994.6,N
1501874255.0,286046994.7,N
1501874255.9,286046994.7,N
1501874275.8,286046996.4,N
1501874295.6,286046996.4,N
1501874315.4,286046994.5,N
1501874335.3,286046991.9,N
1501874355.1,286046991.7,N
1501874375.8,286046993.0,N
1501874395.7,286046990.6,N
1501874415.5,286046990.7,N
1501874435.3,286046991.8,N
1501874455.2,286046992.0,N
1501874475.9,286046993.5,N
1501874495.7,286046994.8,N
1501874515.6,286046993.3,N
1501874535.4,286046992.9,N
1501874555.2,286046993.2,N
1501874575.1,286046990.1,P
1501874576.0,286046990.1,P
1501874595.8,286046997.9,N
1501874615.6,286046996.1,N
1501874635.5,286046995.2,N
1501874655.3,286046997.7,N
1501874675.1,286046993.3,N
1501874695.9,286046995.2,N
1501874715.7,286046996.8,N
1501874735.5,286046994.9,N
1501874755.3,286046993.3,N
1501874775.2,286046995.0,N
1501874795.0,286046996.2,N
1501874795.9,286046996.2,N
1501874815.7,286046997.5,N
1501874835.6,286046997.9,N
1501874855.4,286046996.3,N
1501874875.2,286046994.3,N
1501874895.1,286046995.6,N
1501874896.0,286046995.6,N
1501874915.8,286046997.2,N
1501874935.6,286046996.6,N
1501874955.5,286047000.9,N
1501874975.3,286047002.3,N
1501874995.1,286047004.3,N
1501875015.9,286047003.6,N
1501875035.7,286047005.5,N
1501875055.5,286047005.5,N
1501875075.3,286047006.9,N
1501875095.2,286047004.7,N
1501875115.0,286047008.9,N
1501875115.9,286047008.9,N
1501875135.7,286047008.1,N
1501875155.6,286047010.2,N
1501875175.4,286047009.7,N
1501875195.2,286047013.6,N
1501875215.1,286047014.3,N
1501875216.0,286047014.3,N
1501875235.8,286047014.8,N
1501875255.6,286047012.5,N
1501875275.5,286047012.0,N
1501875295.3,286047009.2,N
1501875315.1,286047008.3,N
1501875335.9,286047009.0,N
1501875355.7,286047006.3,N
1501875375.5,286047004.5,N
1501875395.4,286047007.4,N
1501875415.2,286047008.0,N
1501875435.0,286047006.8,N
1501875435.9,286047006.8,N
1501875455.8,286047006.1,N
1501875475.6,286047007.3,N
1501875495.4,286047005.6,N
1501875515.2,286047004.3,N
1501875535.1,286047005.0,N
1501875536.0,286047005.0,N
1501875555.8,286047009.1,N
1501875575.7,286047008.2,N
1501875595.5,286047009.9,P
1501875615.3,286047002.0,N
1501875635.2,286047000.4,N
1501875655.9,286046996.9,N
1501875675.7,286046997.7,N
1501875695.5,286046999.4,N
1501875715.4,286046999.1,N
1501875735.2,286046997.9,N
1501875755.0,286046994.9,N
1501875755.9,286046994.9,N
1501875775.8,286046998.0,N
1501875795.6,286046997.0,N
1501875815.4,286046996.6,N
1501875835.3,286047000.8,N
1501875855.1,286047000.5,N
1501875875.8,286047002.6,N
1501875895.7,286047000.4,N
1501875915.5,286047001.0,N
1501875935.3,286046998.2,N
1501875955.2,286046998.5,N
1501875975.9,286047000.5,N
1501875995.7,286047000.8,N
1501876015.6,286047000.7,N
1501876035.4,286047000.0,N
1501876055.2,286046997.9,N
1501876075.0,286046997.7,N
1501876075.9,286046997.7,N
1501876095.8,286046997.2,N
1501876115.6,286046998.0,N
1501876135.4,286046995.0,N
1501876155.3,286046995.1,N
1501876175.1,286046995.4,N
1501876195.8,286046996.3,N
1501876215.7,286046991.7,P
1501876235.5,286046996.1,N
1501876255.3,286046997.3,N
1501876275.2,286046997.5,N
1501876295.9,286046997.5,N
1501876315.7,286046995.1,N
1501876335.6,286046997.4,N
1501876355.4,286046995.0,N
1501876375.2,286046996.1,N
1501876395.1,286046997.1,N
1501876396.0,286046997.1,N
1501876415.8,286046999.6,N
1501876435.6,286046999.7,N
1501876455.5,286047000.9,N
1501876475.3,286047002.2,N
1501876495.1,286047000.5,N
1501876515.8,286046998.2,N
1501876535.7,286046996.7,N
1501876555.5,286046999.6,N
1501876575.3,286046999.0,N
1501876595.2,286046995.5,N
1501876615.9,286046995.2,N
1501876635.7,286046993.9,N
1501876655.6,286046991.8,P
1501876675.4,286046995.2,N
1501876695.2,286046998.0,N
1501876715.1,286046996.2,N
1501876716.0,286046996.2,N
1501876735.8,286046995.1,N
1501876755.6,286046997.9,N
1501876775.5,286046998.9,N
1501876795.3,286046999.6,N
